Regional Weather Roundup
Issued by NWS Pendleton, OR

Home | Current Version | Previous Version | Text Only | Print | Product List | Glossary On
Versions: 1 2 3 4 5 6 7 8 9 10 11 12 13 14 15 16 17 18 19 20 21 22 23 24 25 26 27 28 29 30 31 32 33 34 35 36 37 38 39 40 41 42 43 44 45 46 47 48 49 50
000
ASUS46 KPDT 291325
RWRPDT
PENDLETON REGIONAL WEATHER ROUNDUP
NATIONAL WEATHER SERVICE PENDLETON OREGON
600 AM PDT WED JUL 29 2015

NOTE: FAIR INDICATES FEW OR NO CLOUDS BELOW 12,000 FEET WITH NO
SIGNIFICANT WEATHER AND/OR OBSTRUCTIONS TO VISIBILITY.

# INDICATES UNOFFICIAL STATION AND DATA

WAZ520-291410-
EAST SLOPES OF WASHINGTON CASCADES

CITY            SKY/WX      TMP DP  RH  WIND    PRES   REMARKS
#BULLFROG 2SW   N/A         48  42  80  S1      27.82R
#BUMPING DAM    N/A         44  N/A N/A NE2     N/A
#CLE ELUM HS    N/A         47  43  86  CALM    30.15S
#CLE ELUM LAKE  N/A         55  42  61  E1      30.10R
#CLIFFDEL 2NW   N/A         45  40  82  N1      N/A
#GLENWOOD       N/A         42  40  93  CALM    30.15R
#MANASTASH CYN  N/A         51  28  41  CALM    30.19R
#NELSON         N/A         47  41  79  CALM    30.16R
#NELSON 3SW     N/A         51  34  52  CALM    30.32R
#NILE           N/A         47  40  76  CALM    29.45S
#RONALD 2NW     N/A         54  34  47  NE1     30.10R
#SNOWDEN        N/A         52  33  48  CALM    N/A
#TEANAWAY 4NE   N/A         46  42  86  CALM    N/A
#TROUT LAKE 1NE N/A         48  43  83  CALM    30.13S
$$

WAZ521-291410-
SIMCOE HIGHLANDS

CITY            SKY/WX      TMP DP  RH  WIND    PRES   REMARKS
#BICKLETON HS   N/A         56  26  31  CALM    N/A
#CENTERVILLE 4W N/A         59  41  51  NE2     29.92S
#CENTERVILLE 1SWN/A         46  33  60  CALM    30.11R
#GOLDENDALE     N/A         55  39  55  CALM    N/A
#GOLDENDALE 1NE N/A         52  28  39  N2      N/A
#GOLDENDALE 5WNWN/A         52  39  61  CALM    30.11R
#GOODNOE HILLS  N/A         62  40  44  CALM    N/A
#LYLE 6NE       N/A         60  45  58  CALM    30.08R
$$

WAZ026-291410-
KITTITAS VALLEY

CITY            SKY/WX      TMP DP  RH  WIND    PRES   REMARKS
ELLENSBURG AP   CLEAR       50  41  71  CALM    30.19S
YTC-OPS AREA    N/A         62  41  46  W21G28  30.19S
#ELLENSBURG CWU N/A         52  44  74  CALM    30.08S
#ELLENSBURG 3NE N/A         49  43  80  CALM    30.18S
#KITTITAS 3S    N/A         44  42  93  CALM    30.12S
#THORP 6N       N/A         52  43  71  N6      30.13S
$$

WAZ027-291410-
YAKIMA VALLEY

CITY            SKY/WX      TMP DP  RH  WIND    PRES   REMARKS
SUNNYSIDE AP    CLEAR       47  44  89  CALM    30.16R
YAKIMA AIRPORT  CLEAR       55  41  59  W7      30.17S
#DONALD 2NE     N/A         61  34  36  N1      29.01R
#GRANDVIEW      N/A         53  44  71  CALM    30.14S
#MABTON         N/A         52  43  71  CALM    30.14S
#MOXEE 2E       N/A         55  35  47  E1      30.12R
#NACHES 2SW     N/A         61  40  46  W7      30.19S
#OUTLOOK DOT    N/A         N/A N/A N/A NE5     N/A
#SELAH 8E       N/A         51  39  63  E6      N/A
#TERRACE HTS    N/A         53  45  74  CALM    30.09R
#TOPPENISH      N/A         55  48  77  CALM    30.05R
#WAPATO 4NE     N/A         61  34  36  N1      29.01R
#WEST VALLEY    N/A         52  42  69  CALM    30.11S
#WHITE SWAN 5E  N/A         50  44  80  N1      30.13S
#WILEY CITY 3W  N/A         52  34  50  CALM    30.15R
$$

WAZ028-291410-
LOWER COLUMBIA BASIN...WASHINGTON

CITY            SKY/WX      TMP DP  RH  WIND    PRES   REMARKS
HANFORD         CLEAR       59  37  44  S6      30.13S
PASCO           CLEAR       50  45  83  N3      30.15R
RICHLAND AWOS   CLEAR       55  50  83  CALM    30.15R
#BASIN CITY 5SW N/A         51  44  77  CALM    30.14S
#BENTON CITY    N/A         57  45  64  CALM    30.03S
#CONNELL 5N     N/A         50  35  56  NE1     30.12S
#CONNELL 5NW    N/A         52  37  56  CALM    30.09R
#ELTOPIA 6NW    N/A         55  43  64  NE2     29.11S
#KAHLOTUS       N/A         52  33  48  S7      30.12R
#KENNEWICK      N/A         48  42  80  S1      27.82R
#KENNEWICK 3S   N/A         63  41  44  CALM    30.11S
#PATERSON       N/A         58  45  62  CALM    30.11S
#PROSSER        N/A         60  38  44  CALM    30.12R
#SAGEMOOR 2W    N/A         53  43  69  CALM    29.97R
#TOUCHET 2S     N/A         42  38  86  CALM    30.12R
#WEST PASCO     N/A         54  45  71  E1      30.14R
$$

WAZ029-291410-
FOOTHILLS OF THE BLUES...WASHINGTON

CITY            SKY/WX      TMP DP  RH  WIND    PRES   REMARKS
WALLA WALLA AP  CLEAR       61  38  42  E6      30.16R
#DAYTON SCHOOL  N/A         54  34  47  CALM    30.17R
#LOWDEN 2SE     N/A         48  42  80  E1      30.12R
#PLEASANT VIEW 1N/A         59  34  39  CALM    30.15R
#PRESCOTT       N/A         51  38  61  CALM    30.13S
#SUDBURY        N/A         51  N/A N/A CALM    N/A
#WHITMAN COLLEGEN/A         63  41  44  N1      30.16S
#WAITSBURG 8N   N/A         46   9  22  CALM    30.03S
#WALLA WALLA U  N/A         57  45  64  CALM    30.11R
#WHITMAN MISSIONN/A         49  44  83  CALM    30.13S
$$

WAZ030-291410-
BLUE MOUNTAINS...WASHINGTON

CITY            SKY/WX      TMP DP  RH  WIND    PRES   REMARKS
$$

ORZ009-041-WAZ024-291410-
COLUMBIA RIVER GORGE

CITY            SKY/WX      TMP DP  RH  WIND    PRES   REMARKS
HOOD RIVER AP   CLEAR       55  50  83  S3      30.16S
THE DALLES AP   CLEAR       58  44  60  E5      30.14R
#ARLINGTON AIRPON/A         61  45  56  CALM    29.80R
#MOSIER 1S      N/A         59  42  53  CALM    30.17S
#MURDOCK        N/A         63  53  70  W2      30.15R

$$

ORZ510-291410-
NORTH CENTRAL OREGON

CITY            SKY/WX      TMP DP  RH  WIND    PRES   REMARKS
#CHENOWITH 1W   N/A         60  48  64  NW7     N/A
#DUFUR 9E       N/A         65  42  43  CALM    30.14R
#GRASS VALLEY 1SN/A         58  38  47  S2      30.13R
#MAUPIN SCHOOL  N/A         57  42  57  CALM    30.18R
#MORO SCHOOL    N/A         51  40  66  CALM    30.19R
#SHANIKO 4NW    N/A         62  35  36  E7      30.24S
#TYGH VALLEY 2NEN/A         53  40  61  CALM    30.12R
#WAPANITIA AIRPON/A         55  43  64  NW1     30.12S
#WASCO AIRPORT  N/A         62  37  39  CALM    N/A
#WASCO 5NE      N/A         54  38  55  CALM    30.12R
$$

ORZ511-291410-
CENTRAL OREGON

CITY            SKY/WX      TMP DP  RH  WIND    PRES   REMARKS
BEND AIRPORT    CLEAR       48  34  58  CALM    30.25R
MADRAS AIRPORT  CLEAR       50  37  61  SE5     30.22S
PRINEVILLE AP   CLEAR       45  30  55  CALM    30.24R
REDMOND AIRPORT CLEAR       47  33  58  S5      30.23S
#BEND 1SW       N/A         44  34  68  CALM    N/A
#BEND-AWBREY    N/A         56  39  53  CALM    30.11S
#BEND-KIM LN    N/A         50  39  66  CALM    30.22S
#CROOKED RVR RANN/A         51  37  59  CALM    30.10R
#CULVER         N/A         50  39  66  CALM    30.18R
#LAKE BILLY CHINN/A         55  16  21  CALM    30.23S
#POWELL BUTTE 3EN/A         46  32  58  SE2     N/A
#POWELL BUTTE   N/A         53  35  50  S2      29.85S
#PRINEVILLE 3N  N/A         46  39  76  E1      30.11R
#WARM SPRINGS   N/A         51  38  61  CALM    30.16R

$$


ORZ509-291410-
EAST SLOPES OF OREGON CASCADES

CITY            SKY/WX      TMP DP  RH  WIND    PRES   REMARKS
#CAMP SHERMAN   N/A         36  29  75  CALM    30.19R
#LA PINE 4NW    N/A         37  29  72  CALM    30.17R
#SISTERS AIRPOR N/A         41  35  79  CALM    30.17S
#SISTERS 1NW    N/A         42  32  67  N6      N/A
#SISTERS 3N     N/A         40  24  52  CALM    30.34S
#SUNRIVER       N/A         43  37  79  CALM    30.02R
#TUMALO 3W      N/A         61  36  39  W1      29.98F
#WANOGA BUTTE D N/A         53  31  43  NE1     N/A

$$

ORZ044-291410-
LOWER COLUMBIA BASIN...OREGON

CITY            SKY/WX      TMP DP  RH  WIND    PRES   REMARKS
HERMISTON       CLEAR       51  40  66  SE3     30.14S
#BOARDMAN SCHOOLN/A         51  45  80  SE1     30.15R
#BOARDMAN 8SW   N/A         55  40  57  CALM    30.13R
#ECHO 8SW       N/A         51  41  68  CALM    30.16R
#IONE SCHOOL    N/A         55  38  53  CALM    30.13R
#IRRIGON 4NW    N/A         51  48  89  S2      N/A
#UMATILLA       N/A         57  40  53  CALM    30.06R
$$

ORZ507-291410-
NORTHERN FOOTHILLS OF THE BLUES

CITY            SKY/WX      TMP DP  RH  WIND    PRES   REMARKS
PENDLETON AIRPT CLEAR       53  37  54  E8      30.17R
#ADAMS 3WNW     N/A         46  35  65  CALM    30.14R
#ATHENA         N/A         47  38  71  CALM    30.15S
#CAYUSE         N/A         60  41  49  E10     30.11S
#HELIX SCHOOL   N/A         48  36  63  CALM    30.13R
#HELIX 3N       N/A         59  37  44  CALM    30.14S
#HOLDMAN 5SE    N/A         53  38  57  CALM    30.16S
#HOLDMAN 6E     N/A         53  39  59  SE3     29.94S
#M-F GROVE ELEM N/A         61  36  39  CALM    30.14R
#M-FREEWATER 5SEN/A         62  40  44  E2      30.16R
#PENDLETON DNTN N/A         51  32  48  CALM    30.14S
#PDT AQUATIC CTRN/A         52  32  46  CALM    30.15R
#PDT SUNRIDGE   N/A         47  36  65  CALM    30.18R
#PENDLETON 7NW  N/A         54  39  57  E7      N/A
#PILOT ROCK     N/A         61  36  39  S6      30.20R
#TUTUILLA       N/A         45  37  73  CALM    30.15S
#UMAPINE 2E     N/A         51  42  71  CALM    30.12R
#WESTON SCHOOL  N/A         59  33  37  W1      30.07R

$$

ORZ508-291410-
SOUTHERN FOOTHILLS OF THE BLUES

CITY            SKY/WX      TMP DP  RH  WIND    PRES   REMARKS
#AJAX           N/A         63  31  30  CALM    30.11R
#CONDON SCHOOL  N/A         59  38  45  W1      30.16S
#CONDON 5W      N/A         64  34  33  CALM    30.19S
#FOSSIL SCHOOL  N/A         49  36  61  CALM    30.16R
#HEPPNER EOC    N/A         56  35  45  SE7     30.06S
#HEPPNER 4NE    N/A         57  35  43  E3      30.11F
#LEXINGTON 2SE  N/A         59  37  44  SE12    30.14S
#OLEX 4N        N/A         55  37  51  S2      30.14R
#RUGGS 5NE      N/A         56  35  45  NW1     30.40S
#RUGGS 2SW      N/A         59  35  40  S9      30.13S

$$

ORZ502-503-291410-
BLUE MOUNTAINS

CITY            SKY/WX      TMP DP  RH  WIND    PRES   REMARKS
MEACHAM         CLEAR       37  34  89  CALM    30.27R
#HEPPNER 15SE   N/A         46  33  60  CALM    30.18S
#LONG CREEK HS  N/A         49  42  77  CALM    30.22S
#PIKES PEAK     N/A         66  34  30  N1      27.99S
#TOLLGATE       N/A         47  34  60  CALM    30.14R
#TROY SCHOOL    N/A         51  41  68  CALM    30.04R
#UKIAH          N/A         35  32  89  CALM    30.26R
#WESTON 4E      N/A         61  36  39  E1      30.06F
$$

ORZ505-291410-
JOHN DAY BASIN

CITY            SKY/WX      TMP DP  RH  WIND    PRES   REMARKS
JOHN DAY        CLEAR       53  32  45  E8      30.28R
#JOHN DAY KJDY  N/A         46  34  63  CALM    30.29F
#DAYVILLE SCHOOLN/A         53  35  50  S1      30.21R
#MITCHELL       N/A         52  39  61  E1      30.38R
#MONUMENT HS    N/A         46  40  79  CALM    30.23R
#MT. VERNON 5SE N/A         53  35  50  CALM    30.22S
#WINLOCK        N/A         53  35  50  CALM    30.30R
$$

ORZ506-291410-
OCHOCO AND JOHN DAY HIGHLANDS

CITY            SKY/WX      TMP DP  RH  WIND    PRES   REMARKS
#HORSE RIDGE DO N/A         34  23  64  CALM    N/A
#PAULINA SCHOOL N/A         39  32  76  CALM    30.20R
#PINE MTN OBS   N/A         55  34  45  NE3     N/A
#PRAIRIE CITY   N/A         40  35  82  E1      30.37R
#SENECA         N/A         36  N/A N/A CALM    N/A
#SENECA 9NW     N/A         33  28  82  CALM    30.18R
$$

ORZ049-291410-
GRANDE RONDE VALLEY

CITY            SKY/WX      TMP DP  RH  WIND    PRES   REMARKS
LA GRANDE       CLEAR       48  30  49  CALM    30.25R
#COVE           N/A         47  41  79  CALM    30.26R
#COVE SCHOOL    N/A         46  39  76  CALM    30.25R
#COVE 6NW       N/A         42  37  82  CALM    30.22R
#ELGIN 3N       N/A         44  36  73  CALM    30.22R
#ELGIN 1E       N/A         44  36  73  CALM    N/A
#ISLAND CITY 4N N/A         57  50  77  CALM    30.11S
#LA GRANDE ELEM N/A         51  40  66  CALM    30.26R
#UNION 1S       N/A         45  37  73  CALM    30.07R
$$

ORZ050-291410-
WALLOWA COUNTY

CITY            SKY/WX      TMP DP  RH  WIND    PRES   REMARKS
JOSEPH AIRPORT  CLEAR       45  37  73  S3      30.29R
#IMNAHA SCHOOL  N/A         52  40  63  SW3     30.22R
#IMNAHA 10S     N/A         52  36  54  SW5     30.24R
#JOSEPH 3N      N/A         41  33  73  CALM    30.27R
#JOSEPH 3W      N/A         54  40  59  SW1     30.11R
#LOSTINE        N/A         41  36  82  CALM    29.99R
#MT HOWARD 8000 N/A         50  30  46  CALM    30.46R
#PROMISE 1S     N/A         48  36  63  CALM    30.24R
#WALLOWA SCHOOL N/A         40  36  85  CALM    30.22R



$$



USA.gov is the U.S. government's official web portal to all federal, state and local government web resources and services.